Location: Asheville, NC
(35.6000°N, 82.5500°W)
Time: 17:15:04
(UTC-04:00)

Vanguard 3 - Pass Details

Date: 17 March 2018
Orbit: 508 x 3264 km, 33.3° (Epoch: 18 June)

Event Time Altitude Azimuth Distance (km) Brightness Sun altitude
Rises 11:26:00 0° 269° (W) 7,231 11.7 42.0°
Reaches altitude 10° 11:31:00 10° 269° (W) 6,160 11.4 42.7°
Maximum altitude 11:50:12 82° 185° (S) 2,559 10.6 45.4°
Drops below altitude 10° 12:02:07 10° 100° (E) 4,072 11.3 46.9°
Sets 12:04:44 0° 99° (E) 4,763 11.5 47.2°
